Hourly Weather Sydney

Today, 1 October, Thursday

Time Temperature Precipitation Wind Pressure Humidity
00:00 +14°C° 0 mm 5 mps 758 mmHg 77%
01:00 +14°C° 0 mm 6 mps 758 mmHg 78%
02:00 +14°C° 0.2 mm 5 mps 758 mmHg 79%
03:00 +14°C° 0.2 mm 5 mps 758 mmHg 80%
04:00 +15°C° 0 mm 5 mps 758 mmHg 81%
05:00 +15°C° 0.2 mm 4 mps 759 mmHg 80%
06:00 +15°C° 0.2 mm 4 mps 759 mmHg 79%
07:00 +17°C° 0.2 mm 3 mps 760 mmHg 78%
08:00 +19°C° 0 mm 3 mps 760 mmHg 64%
09:00 +21°C° 0 mm 3 mps 760 mmHg 51%
10:00 +24°C° 0 mm 2 mps 761 mmHg 37%
11:00 +26°C° 0 mm 3 mps 760 mmHg 31%
12:00 +27°C° 0 mm 3 mps 760 mmHg 25%
13:00 +28°C° 0 mm 3 mps 759 mmHg 19%
14:00 +27°C° 0 mm 3 mps 760 mmHg 19%
15:00 +27°C° 0 mm 3 mps 760 mmHg 19%
16:00 +26°C° 0 mm 3 mps 761 mmHg 22%
17:00 +22°C° 0 mm 3 mps 762 mmHg 41%
18:00 +20°C° 0 mm 3 mps 763 mmHg 61%
19:00 +17°C° 0 mm 4 mps 763 mmHg 81%
20:00 +16°C° 0 mm 3 mps 764 mmHg 83%
21:00 +16°C° 0 mm 2 mps 765 mmHg 86%
22:00 +15°C° 0 mm 2 mps 765 mmHg 88%
23:00 +15°C° 0 mm 1 mps 765 mmHg 88%

Tomorrow, 2 October, Friday

Time Temperature Precipitation Wind Pressure Humidity
00:00 +15°C° 0 mm 1 mps 765 mmHg 88%
01:00 +15°C° 0 mm 1 mps 765 mmHg 88%
02:00 +14°C° 0 mm 1 mps 765 mmHg 87%
03:00 +14°C° 0 mm 2 mps 765 mmHg 85%
04:00 +13°C° 0 mm 2 mps 766 mmHg 84%
05:00 +13°C° 0 mm 2 mps 766 mmHg 78%
06:00 +13°C° 0 mm 2 mps 766 mmHg 72%
07:00 +13°C° 0 mm 3 mps 767 mmHg 66%
08:00 +17°C° 0 mm 2 mps 767 mmHg 54%
09:00 +20°C° 0 mm 2 mps 767 mmHg 42%
10:00 +24°C° 0 mm 2 mps 767 mmHg 31%
11:00 +26°C° 0 mm 2 mps 766 mmHg 26%
12:00 +28°C° 0 mm 3 mps 766 mmHg 22%
13:00 +30°C° 0 mm 3 mps 765 mmHg 18%
14:00 +30°C° 0 mm 3 mps 765 mmHg 19%
15:00 +29°C° 0 mm 4 mps 765 mmHg 20%
16:00 +29°C° 0 mm 4 mps 765 mmHg 21%
17:00 +26°C° 0 mm 4 mps 766 mmHg 31%
18:00 +22°C° 0 mm 4 mps 766 mmHg 41%
19:00 +19°C° 0 mm 4 mps 767 mmHg 52%
20:00 +19°C° 0 mm 3 mps 767 mmHg 54%
21:00 +18°C° 0 mm 3 mps 768 mmHg 57%
22:00 +18°C° 0 mm 3 mps 768 mmHg 59%
23:00 +17°C° 0 mm 3 mps 768 mmHg 60%

Day after tomorrow, 3 October, Saturday

Time Temperature Precipitation Wind Pressure Humidity
00:00 +16°C° 0 mm 3 mps 768 mmHg 61%
01:00 +16°C° 0 mm 2 mps 767 mmHg 62%
02:00 +15°C° 0 mm 2 mps 767 mmHg 62%
03:00 +15°C° 0 mm 2 mps 768 mmHg 62%
04:00 +15°C° 0 mm 2 mps 768 mmHg 61%
05:00 +15°C° 0 mm 2 mps 768 mmHg 58%
06:00 +16°C° 0 mm 2 mps 768 mmHg 54%
07:00 +17°C° 0 mm 2 mps 769 mmHg 51%
08:00 +20°C° 0 mm 2 mps 769 mmHg 43%
09:00 +25°C° 0 mm 3 mps 768 mmHg 35%
10:00 +28°C° 0 mm 3 mps 768 mmHg 26%
11:00 +29°C° 0 mm 4 mps 768 mmHg 25%
12:00 +30°C° 0 mm 5 mps 767 mmHg 23%
13:00 +32°C° 0 mm 6 mps 767 mmHg 21%
14:00 +30°C° 0 mm 7 mps 766 mmHg 27%
15:00 +29°C° 0 mm 7 mps 766 mmHg 33%
16:00 +27°C° 0 mm 7 mps 765 mmHg 39%
17:00 +24°C° 0 mm 7 mps 766 mmHg 48%
18:00 +22°C° 0 mm 8 mps 766 mmHg 56%
19:00 +20°C° 0 mm 8 mps 766 mmHg 65%
20:00 +20°C° 0 mm 7 mps 766 mmHg 70%
21:00 +19°C° 0 mm 6 mps 766 mmHg 74%
22:00 +17°C° 0 mm 5 mps 767 mmHg 79%
23:00 +17°C° 0 mm 4 mps 766 mmHg 81%

4 October, Sunday

Time Temperature Precipitation Wind Pressure Humidity
00:00 +17°C° 0 mm 4 mps 766 mmHg 83%
01:00 +15°C° 0 mm 4 mps 766 mmHg 86%
02:00 +16°C° 0 mm 3 mps 766 mmHg 86%
03:00 +16°C° 0 mm 3 mps 766 mmHg 87%
04:00 +14°C° 0 mm 3 mps 765 mmHg 88%
05:00 +16°C° 0 mm 3 mps 766 mmHg 83%
06:00 +17°C° 0 mm 3 mps 766 mmHg 77%
07:00 +17°C° 0 mm 2 mps 766 mmHg 72%
08:00 +21°C° 0 mm 3 mps 766 mmHg 58%
09:00 +25°C° 0 mm 3 mps 765 mmHg 45%
10:00 +28°C° 0 mm 4 mps 765 mmHg 32%
11:00 +30°C° 0 mm 4 mps 764 mmHg 28%
12:00 +33°C° 0 mm 5 mps 764 mmHg 25%
13:00 +34°C° 0 mm 6 mps 763 mmHg 21%
14:00 +33°C° 0 mm 6 mps 763 mmHg 27%
15:00 +32°C° 0 mm 7 mps 762 mmHg 33%
16:00 +29°C° 0 mm 7 mps 762 mmHg 39%
17:00 +27°C° 0 mm 7 mps 762 mmHg 45%
18:00 +24°C° 0 mm 7 mps 762 mmHg 51%
19:00 +22°C° 0 mm 7 mps 763 mmHg 58%
20:00 +22°C° 0 mm 6 mps 763 mmHg 59%
21:00 +22°C° 0 mm 6 mps 763 mmHg 59%
22:00 +21°C° 0 mm 5 mps 763 mmHg 60%
23:00 +21°C° 0 mm 4 mps 763 mmHg 62%

5 October, Monday

Time Temperature Precipitation Wind Pressure Humidity
00:00 +20°C° 0 mm 4 mps 763 mmHg 64%
01:00 +19°C° 0 mm 3 mps 763 mmHg 66%
02:00 +19°C° 0 mm 3 mps 762 mmHg 69%
03:00 +18°C° 0 mm 3 mps 762 mmHg 71%
04:00 +18°C° 0 mm 2 mps 762 mmHg 73%
05:00 +19°C° 0 mm 3 mps 762 mmHg 66%
06:00 +20°C° 0 mm 4 mps 762 mmHg 60%
07:00 +21°C° 0 mm 5 mps 763 mmHg 53%
08:00 +25°C° 0 mm 5 mps 762 mmHg 44%
09:00 +28°C° 0 mm 5 mps 762 mmHg 36%
10:00 +30°C° 0 mm 5 mps 762 mmHg 28%
11:00 +33°C° 0 mm 5 mps 762 mmHg 26%
12:00 +34°C° 0 mm 5 mps 762 mmHg 24%
13:00 +35°C° 0 mm 5 mps 761 mmHg 22%
14:00 +35°C° 0 mm 5 mps 761 mmHg 25%
15:00 +34°C° 0 mm 5 mps 761 mmHg 27%
16:00 +33°C° 0 mm 6 mps 761 mmHg 29%
17:00 +30°C° 0 mm 6 mps 762 mmHg 38%
18:00 +27°C° 0 mm 6 mps 763 mmHg 48%
19:00 +24°C° 0 mm 6 mps 764 mmHg 58%
20:00 +22°C° 0 mm 7 mps 764 mmHg 66%
21:00 +20°C° 0 mm 8 mps 765 mmHg 74%
22:00 +17°C° 0 mm 9 mps 765 mmHg 82%
23:00 +16°C° 0.1 mm 8 mps 765 mmHg 82%

6 October, Tuesday

Time Temperature Precipitation Wind Pressure Humidity
00:00 +16°C° 0.1 mm 8 mps 765 mmHg 83%
01:00 +16°C° 0.1 mm 7 mps 765 mmHg 83%
02:00 +16°C° 0.2 mm 7 mps 766 mmHg 83%
03:00 +15°C° 0.2 mm 7 mps 766 mmHg 83%
04:00 +15°C° 0.2 mm 7 mps 766 mmHg 82%
05:00 +15°C° 0 mm 7 mps 766 mmHg 82%
06:00 +15°C° 0 mm 6 mps 767 mmHg 82%
07:00 +15°C° 0 mm 6 mps 767 mmHg 81%
08:00 +15°C° 0.1 mm 6 mps 768 mmHg 80%
09:00 +15°C° 0.1 mm 5 mps 768 mmHg 79%
10:00 +16°C° 0.1 mm 5 mps 768 mmHg 78%
11:00 +16°C° 0.1 mm 5 mps 767 mmHg 78%
12:00 +16°C° 0.1 mm 5 mps 767 mmHg 77%
13:00 +18°C° 0.1 mm 4 mps 767 mmHg 76%
14:00 +18°C° 0.1 mm 4 mps 767 mmHg 78%
15:00 +16°C° 0.1 mm 5 mps 767 mmHg 79%
16:00 +16°C° 0.1 mm 5 mps 766 mmHg 81%
17:00 +17°C° 0.1 mm 4 mps 767 mmHg 83%
18:00 +17°C° 0.1 mm 4 mps 767 mmHg 85%
19:00 +17°C° 0.1 mm 3 mps 768 mmHg 87%
20:00 +17°C° 0.1 mm 3 mps 768 mmHg 88%
21:00 +17°C° 0.1 mm 2 mps 768 mmHg 88%
22:00 +18°C° 0.1 mm 1 mps 768 mmHg 89%
23:00 +18°C° 0.1 mm 1 mps 767 mmHg 89%
Show more